This is the latest recevied weather packets stored in our database for station/object N1IJV-10. If no packets are shown the sender has not sent any weather packets the latest 10 day(s).
| Time | Temp. | Humidity | Pressure | Rain* | Wind** | Luminosity | Snow |
|---|---|---|---|---|---|---|---|
| 1778104685 | 12.22° C | 45% | 1012.9 hPa | 0 mm | - | 151 W/m² | - |
| 1778104381 | 12.22° C | 45% | 1012.9 hPa | 0 mm | - | 130 W/m² | - |
| 1778104077 | 12.22° C | 46% | 1013 hPa | 0 mm | - | 132 W/m² | - |
| 1778103774 | 13.33° C | 44% | 1013 hPa | 0 mm | - | 235 W/m² | - |
| 1778103472 | 13.33° C | 44% | 1012.8 hPa | 0 mm | - | 387 W/m² | - |
| 1778103169 | 13.33° C | 45% | 1012.8 hPa | 0 mm | - | 161 W/m² | - |
| 1778102867 | 13.89° C | 46% | 1012.8 hPa | 0 mm | - | 432 W/m² | - |
| 1778102562 | 13.89° C | 43% | 1012.7 hPa | 0 mm | - | 444 W/m² | - |
| 1778102258 | 13.33° C | 44% | 1012.9 hPa | 0 mm | - | 481 W/m² | - |
| 1778101954 | 13.33° C | 46% | 1012.6 hPa | 0 mm | - | 124 W/m² | - |
| 1778101651 | 12.22° C | 49% | 1012.8 hPa | 0 mm | - | 269 W/m² | - |
| 1778101348 | 13.33° C | 46% | 1012.7 hPa | 0 mm | - | 137 W/m² | - |
| 1778101045 | 14.44° C | 45% | 1012.7 hPa | 0 mm | - | 149 W/m² | - |
| 1778100741 | 15° C | 46% | 1012.6 hPa | 0 mm | - | 621 W/m² | - |
| 1778100438 | 15° C | 40% | 1012.9 hPa | 0 mm | - | 571 W/m² | - |
| 1778100135 | 14.44° C | 42% | 1012.7 hPa | 0 mm | - | 520 W/m² | - |
| 1778099833 | 13.33° C | 42% | 1012.8 hPa | 0 mm | - | 611 W/m² | - |
| 1778099530 | 13.33° C | 46% | 1012.8 hPa | 0 mm | - | 151 W/m² | - |
| 1778099228 | 14.44° C | 46% | 1012.8 hPa | 0 mm | - | 615 W/m² | - |
| 1778098923 | 14.44° C | 40% | 1013 hPa | 0 mm | - | 580 W/m² | - |
| 1778098621 | 13.89° C | 39% | 1012.7 hPa | 0 mm | - | 181 W/m² | - |
| 1778098317 | 13.89° C | 38% | 1013 hPa | 0 mm | - | 552 W/m² | - |
| 1778098014 | 13.33° C | 44% | 1013 hPa | 0 mm | - | 604 W/m² | - |
| 1778097710 | 14.44° C | 41% | 1013.1 hPa | 0 mm | - | 154 W/m² | - |
| 1778097407 | 14.44° C | 40% | 1013.3 hPa | 0 mm | - | 610 W/m² | - |
* Rain latest hour (hover to see other rain measurements)
** Current wind speed in m/s (hover to see current wind gust speed)